Regional Weather Roundup
Issued by NWS Lake Charles, LA

Home | Current Version | Previous Version | Text Only | Print | Product List | Glossary On
Versions: 1 2 3 4 5 6 7 8 9 10 11 12 13 14 15 16 17 18 19 20 21 22 23 24 25 26 27 28 29 30 31 32 33 34 35 36 37 38 39 40 41 42 43 44 45 46 47 48 49 50
000
ASUS44 KLCH 230110
RWRLCH
RWRLCH
REGIONAL WEATHER ROUNDUP
NATIONAL WEATHER SERVICE LAKE CHARLES LA
700 PM CST MON DEC 22 2014

Note: "fair" indicates few or no clouds below 12,000 feet with no
significant weather and/or obstructions to visibility.


ACROSS SOUTHEAST TEXAS

CITY           SKY/WX    TMP DP  RH WIND       PRES   REMARKS
BEAUMONT       CLOUDY    64  62  93 SW13G21   29.65R
BEAUMONT CITY    N/A     64  61  93 S12G20    29.65S
ORANGE         MOCLDY    64  62  93 SW9       29.67S
JASPER         CLOUDY    63  58  83 CALM      29.65R
$$

ACROSS CENTRAL LOUISIANA

CITY           SKY/WX    TMP DP  RH WIND       PRES   REMARKS
LEESVILLE      CLOUDY    64  61  88 S7        29.63R
FULLERTON        N/A     68  61  78 VRB5      29.61R
ALEXANDRIA INT MOCLDY    66  60  81 S6        29.62R
ESLER FIELD    PTCLDY    67  61  81 SW7       29.64R
DERIDDER         N/A     65  61  86 S6        29.65R
OAKDALE        CLOUDY    67  62  84 S7        29.66R
OPELOUSAS      CLOUDY    67  64  88 S9        29.67R
$$

ACROSS SOUTHWEST AND SOUTH CENTRAL LOUISIANA

CITY           SKY/WX    TMP DP  RH WIND       PRES   REMARKS
SULPHUR        CLOUDY    65  65  97 SW12G17   29.67R FOG
LAKE CHARLES   CLOUDY    65  63  93 SW8       29.66R
CHENNAULT INT  CLOUDY    64  63  94 SW12      29.67R
CAMERON PHI    MOCLDY    63  63 100 SW5       29.70R FOG
DEQUINCY       MOCLDY    64  64 100 S9        29.65R
JENNINGS         N/A     65  63  96 S6        29.67R
LAFAYETTE      MOCLDY    69  65  86 SW8       29.69R
NEW IBERIA     CLOUDY    67  66  97 S8        29.70R FOG
ABBEVILLE      MOCLDY    64  64  98 S5        29.69R FOG
PATTERSON      MOCLDY    66  64  94 S7        29.72S
SALT POINT       N/A     69  65  86 VRB5      29.70S
$$

SELECTED SITES ACROSS THE REGION

CITY           SKY/WX    TMP DP  RH WIND       PRES   REMARKS
HOUSTON BUSH   MOCLDY    67  62  84 SW7       29.63R
HOUSTON HOBBY  MOCLDY    62  59  90 S7        29.65R
GALVESTON      CLEAR     62  62 100 SW8       29.67R
COLLEGE STAT   CLOUDY    60  54  80 CALM      29.63R
CONROE         CLOUDY    64  58  80 SW3       29.64R
HUNTSVILLE     CLOUDY    61  55  81 S5        29.63R
LUFKIN         CLOUDY    65  55  70 SW6       29.63R
SHREVEPORT     CLOUDY    57  53  86 S6        29.60R
MONROE         MOCLDY    57  57 100 CALM      29.63R
NATCHEZ MS     CLOUDY    68  61  77 S7        29.66S
BATON ROUGE    PTCLDY    69  63  81 SW10      29.69R
N.O. INTL ARPT CLOUDY    69  66  90 S12       29.72R FOG
SLIDELL        CLOUDY    70  66  87 S7        29.72R
$$

MARINE REPORTS

STATION/POSITION TIME  TEMP    WIND        PRES    VSBY  WAVE
                       AIR SEA DIR/SP/G                  HT/PER
                 (UTC) (F)     (DEG/KT/KT) (MB)    (MI)  (FT/S)
BUOY 30 S HIGH I 0100   64 64  230/ 16/ 19 1003.8R         3/ 4
SEA RIM ST PARK  0100   63     230/ 12/ 14 1005.1R
PORT ARTHUR      0100      60  220/ 13/ 20 1004.3S
SABINE PASS N    0100   64 60  240/  7/ 17 1004.5R
TEXAS POINT      NOT AVBL
CALCASIEU PASS   0100   63 61  210/  8/  9   N/A
LK CHARLES BEACH 0100   65 60              1004.6R
MARSH ISLAND     NOT AVBL
FRESH WATER LOCK 0100   65 63  170/  9/ 12 1004.9S
AMERADA PASS     0100   67 55  190/  5/  9 1006.1S
$$



USA.gov is the U.S. government's official web portal to all federal, state and local government web resources and services.